Location: Unspecified
(0.0000°N, 0.0000°E)
Time: 14:49:06
(UTC+00:00)

CUTE-I - Pass Details

Date: 12 December 2019
Orbit: 811 x 824 km, 98.7° (Epoch: 14 August)

Event Time Altitude Azimuth Distance (km) Brightness Sun altitude
Rises 04:50:32 0° 49° (NE) 3,329 ? -14.4°
Reaches altitude 10° 04:54:09 10° 74° (ENE) 2,398 ? -13.6°
Maximum altitude 04:56:40 14° 103° (ESE) 2,155 ? -13.0°
Drops below altitude 10° 04:59:12 10° 132° (SE) 2,399 ? -12.5°
Sets 05:02:47 0° 157° (SSE) 3,332 ? -11.6°
